Showing default

TIANHUI 5C, 60211

Orbit data source: Space-Track

TIANHUI 5C, 60211 is a payload satellite owned by G. Cehui dili (CN) in SSO that was launched on Thu, 04 Jul 2024 UTC via a CHANG ZHENG 6A launch vehicle from the Taiyaun Space Center, China (TSC). Payload-class satellites include a variety of spacecraft equipped with specific instruments for various scientific and technological missions. These include communications satellites like Starlink; space stations such as the ISS; scientific satellites like the Hubble; Earth observation satellites from companies like Planet Labs, Umbra, and HawkEye 360; GPS; miniature CubeSats for education and research; and military/defense satellites.

Loading next visibility...
Identifier
60211, 2024-126A
Orbit
SSO
Last TLE update
1 day ago
Origin
Manufacturer
DFH
Mission
Operational spacecraft
Bus & Motor
CAST-2000?, Unknown motor
Mass
~1,000 kg wet, ~1,000 kg dry
Launch date (UTC)
2024-07-04 (10 months ago)
Launch vehicle
CHANG ZHENG 6A
Launch site
Taiyaun Space Center, China (TSC)
Object type
Payload
Rocket body
Debris
Shape & HBR
Unknown
Radar Cross Section
Large (>1 m²)

Expand to show TLE details & history

TLE from 1 day ago
0 TIANHUI 5C
1 60211U 24126A   25128.43579656  .00000690  00000-0  81954-4 0  9994
2 60211  97.8210 136.7921 0001599  93.8173 266.3226 14.87585604 45715
Epoch: 2025-05-08T10:27Z
Definitive object data (Epoch: 2025-05-08T10:27:32.822Z)
Latitude
-0.00006°
Longitude
113.39902°
Altitude
608.588 km
Speed
7.555 km/s
True Right ascension
09h 07m 10s
True Declination
0° 00' 00"
Sunlit
Object was in daylight at TLE epoch
Visualization TLE readout
Latitude
18.09234°
Longitude
-62.82003°
Altitude
607.602 km
Speed
7.557 km/s
Apparent Right ascension
18h 12m 34s
Apparent Declination
-21° 54' 51"
Sunlit
Object is in daylight
Visualization observer readout
Local Sidereal Time
00:24:57
Azimuth
254.66° W
Elevation
-16.133°
Doppler factor
1
Orbital elements
Apogee altitude
603.625 km
Perigee altitude
601.393 km
Semi-major axis
6,980.646 km
Eccentricity
0.0001599
Inclination
97.821°
RAAN
136.7921°
Arg. of periapsis
93.8173°
True anomaly
266.30431°
Mean anomaly
266.3226°
Eccentric anomaly
266.31346°
Mean motion
3.72134 °/min
BSTAR
0.000081954
Orbital period
96.74 mins
Loading maneuver chart data...
Loading SW <> Apogee altitude chart data...
Loading historical data...
Loading historical data...
Loading historical data...
Loading historical data...
Loading historical data...
Loading historical data...
Loading historical data...
Other satellites on launch #126 in the year 2024 (2024-07-04 UTC)

TIANHUI 5C Visibility forecast

Observer location: undefined°, undefined°

Span
Click to sort rows by Start time (UTC) header in descending order
Start Az.
Max El. time (UTC)
Max El. Az.
Max El.
End time (UTC)
End Az.
6 mins2025-05-09 23:43:30.519Z123.991° SE2025-05-09 23:46:30.519Z78.296° E22.954°2025-05-09 23:49:30.519Z21.435° NNE
5 mins2025-05-10 01:20:30.519Z222.482° SW2025-05-10 01:22:30.519Z261.485° W23.153°2025-05-10 01:25:30.519Z315.242° NNW
6 mins2025-05-10 13:05:30.519Z31.807° NE2025-05-10 13:07:30.519Z75.896° E37.162°2025-05-10 13:11:30.519Z174.823° S
|